Satellite: NOAA-17
Catalog number: 27453
Epoch time:      05181.29079515
Element set:     429
Inclination:      098.6590 deg
RA of node:       254.6057 deg
Eccentricity:    0.0011872
Arg of perigee:   022.6355 deg
Mean anomaly:     337.5324 deg
Mean motion:   14.23678794 rev/day
Decay rate:       1.32e-06 rev/day^2
Epoch rev:           15670
Checksum:              318

Satellite: NOAA-18
Catalog number: 28654
Epoch time:      05181.53659119
Element set:      42
Inclination:      098.7456 deg
RA of node:       128.1931 deg
Eccentricity:    0.0015141
Arg of perigee:   135.3534 deg
Mean anomaly:     224.8859 deg
Mean motion:   14.10859782 rev/day
Decay rate:       3.60e-06 rev/day^2
Epoch rev:             579
Checksum:              317

/EX
SB KEPS @ AMSAT  $ORB05181.M
Orbital Elements  05181.MISC

HR AMSAT ORBITAL ELEMENTS FOR MANNED AND MISCELLANEOUS SATELLITES
FROM WA5QGD FORT WORTH,TX June 30, 2005
Send SUBSCRIBE KEPS/UNSUBSCRIBE KEPS to majordomo@amsat.org only
BID: ORB05181.M
TO ALL RADIO AMATEURS BT

Satellite: HUBBLE
Catalog number: 20580
Epoch time:      05181.43411428
Element set:     369
Inclination:      028.4660 deg
RA of node:       182.4633 deg
Eccentricity:    0.0003709
Arg of perigee:   057.2935 deg
Mean anomaly:     302.8010 deg
Mean motion:   14.99758160 rev/day
Decay rate:       3.88e-06 rev/day^2
Epoch rev:           63223
Checksum:              286

Satellite: UARS
Catalog number: 21701
Epoch time:      05181.15830861
Element set:     470
Inclination:      056.9784 deg
RA of node:       137.4691 deg
Eccentricity:    0.0004983
Arg of perigee:   082.1109 deg
Mean anomaly:     278.0470 deg
Mean motion:   15.03847807 rev/day
Decay rate:      -5.33e-06 rev/day^2
Epoch rev:           75544
Checksum:              301

Satellite: PO-34
Catalog number: 25520
Epoch time:      05181.73568795
Element set:     215
Inclination:      028.4603 deg
RA of node:       221.7139 deg
Eccentricity:    0.0005419
Arg of perigee:   018.0265 deg
Mean anomaly:     342.0383 deg
Mean motion:   15.16325483 rev/day
Decay rate:       2.45e-06 rev/day^2
Epoch rev:           36864
Checksum:              292

Satellite: ISS
Catalog number: 25544
Epoch time:      05182.09772630
Element set:     813
Inclination:      051.6441 deg
RA of node:       189.5923 deg
Eccentricity:    0.0001699
Arg of perigee:   282.8622 deg
Mean anomaly:     184.4061 deg
Mean motion:   15.72384209 rev/day
Decay rate:      2.472e-05 rev/day^2
Epoch rev:           37787
Checksum:              315

Satellite: WO-39
Catalog number: 26061
Epoch time:      03303.41062303
Element set:     973
Inclination:      100.1904 deg
RA of node:       047.3011 deg
Eccentricity:    0.0034615
Arg of perigee:   281.6926 deg
Mean anomaly:     078.0378 deg
Mean motion:   14.38082544 rev/day
Decay rate:      2.252e-05 rev/day^2
Epoch rev:           19701
Checksum:              268

Satellite: OO-38
Catalog number: 26063
Epoch time:      05180.11361670
Element set:     380
Inclination:      100.2136 deg
RA of node:       042.3378 deg
Eccentricity:    0.0037187
Arg of perigee:   022.3387 deg
Mean anomaly:     337.9415 deg
Mean motion:   14.35723390 rev/day
Decay rate:       -5.8e-07 rev/day^2
Epoch rev:           28400
Checksum:              277

Satellite: NO-45
Catalog number: 26932
Epoch time:      05181.51131075
Element set:      67
Inclination:      067.0564 deg
RA of node:       193.1362 deg
Eccentricity:    0.0006686
Arg of perigee:   244.5902 deg
Mean anomaly:     115.4520 deg
Mean motion:   14.29489797 rev/day
Decay rate:      -1.00e-06 rev/day^2
Epoch rev:           19570
Checksum:              299

/EX




----
Via the keps mailing list at AMSAT.ORG courtesy of AMSAT-NA.
To unsubscribe, send "unsubscribe keps" to Majordomo@amsat.org

--- ViaMAIL!/WC v1.60d
 * Origin: Chowdanet (401-331-0615) telnet://chowdanet.com  (1:323/120)